Location: Six Mile Lake
(44.9000°N, 79.7170°W)
Time: 22:36:56
(UTC-04:00)

BEESAT - Pass Details

Date: 05 July 2022
Orbit: 700 x 706 km, 98.6° (Epoch: 09 August)

Event Time Altitude Azimuth Distance (km) Brightness Sun altitude
Rises 22:25:47 0° 7° (N) 3,106 ? -11.2°
Reaches altitude 10° 22:28:08 10° 1° (N) 2,184 ? -11.5°
Maximum altitude 22:32:37 42° 291° (WNW) 1,000 ? -12.0°
Drops below altitude 10° 22:37:06 10° 221° (SW) 2,172 ? -12.5°
Sets 22:39:26 0° 215° (SW) 3,087 ? -12.7°
